Lid_Strength_Index
2 2 2 1 2 1 2 2 2 2 2 2 1 1 1 3 3 4 5 4 6 9 8 7 7 8 8 9 11 9 10 9 10 12 13 12 12 10 11 10 11 12 14 14 12 15 17 6 7 12 10 9 10 10
3 3 2 2 2 2 2 2 2 2 2 1 1 1 1 2 3 4 6 4 5 8 7 5 4 5 5 6 8 9 10 11 10 12 10 10 11 10 11 13 8 13 10 13 11 12 7 6 7 7 8 10 10 10
3 3 3 2 2 2 2 2 2 2 1 1 1 1 1 2 3 3 5 6 6 8 8 7 6 3 2 4 4 10 9 8 9 8 10 10 12 9 12 10 9 8 7 9 10 8 7 7 7 7 9 9 9 10
3 3 4 3 2 2 2 2 2 2 2 1 1 1 2 1 3 3 6 5 6 7 10 7 3 4 2 3 3 5 7 7 7 8 9 10 10 8 10 8 9 8 7 9 9 7 8 8 7 8 9 9 9 10
4 4 4 3 3 3 3 3 3 2 2 1 2 2 2 1 2 3 4 4 4 7 10 8 5 4 3 3 5 7 8 9 9 10 9 10 8 9 7 7 8 6 8 9 11 8 9 8 8 9 10 10 9 10
4 4 4 4 4 4 4 4 3 3 2 1 1 1 1 2 3 4 7 5 4 4 9 11 4 5 5 5 6 7 8 8 9 10 9 7 7 8 9 9 7 6 7 7 8 7 8 8 8 8 9 9 9 10
3 4 4 4 4 4 4 4 3 3 2 2 1 1 2 2 2 5 7 3 3 3 7 11 9 6 6 6 7 8 7 8 8 9 10 9 7 6 8 11 7 6 6 6 6 8 9 8 9 8 9 9 9 10
3 3 3 4 4 4 4 4 4 3 3 2 1 2 2 3 3 5 3 2 2 6 7 11 10 8 6 9 9 6 8 8 8 9 8 7 5 6 9 7 7 7 6 7 7 7 8 7 8 9 9 9 10 11
3 3 3 3 3 4 4 4 4 3 3 2 2 3 3 4 6 5 2 2 3 6 10 11 12 11 7 8 6 6 6 10 7 10 7 6 8 10 8 7 7 7 7 8 7 7 8 9 9 9 9 9 11 12
3 3 3 4 3 3 3 3 4 3 2 2 3 5 7 5 2 2 4 8 8 8 9 11 8 11 9 9 8 9 8 10 12 8 5 8 8 6 6 6 5 6 7 7 8 10 10 10 10 9 9 10 11 11
3 3 3 3 3 3 2 3 3 2 2 4 6 7 4 2 4 6 9 10 10 11 10 10 10 11 7 10 11 8 10 9 12 9 10 10 10 7 6 6 6 7 7 7 7 8 8 7 8 9 10 10 11 11
3 3 2 2 2 2 2 2 2 2 3 4 4 3 4 6 8 10 11 10 11 11 9 10 10 9 9 7 10 10 10 9 13 7 10 12 9 7 6 6 6 7 7 7 7 8 8 8 8 9 9 10 11 11
2 2 2 2 2 1 1 2 1 2 2 3 6 8 7 9 11 12 13 11 11 9 9 10 11 10 10 9 9 9 11 11 7 10 11 9 7 7 6 6 7 6 7 7 8 8 9 8 8 8 9 9 11 11
2 2 2 2 2 1 1 2 1 2 4 8 9 11 10 11 10 10 9 8 7 7 8 9 10 11 9 9 8 11 8 8 11 14 13 8 6 6 6 6 6 7 7 7 8 8 9 9 9 8 8 9 9 10
2 2 2 2 2 1 1 1 2 2 5 8 8 11 10 7 7 6 6 7 6 6 7 7 7 7 8 9 8 9 11 13 10 11 9 7 5 6 6 6 6 7 7 8 8 9 9 9 9 9 8 8 8 9
2 3 2 2 1 1 1 2 3 4 5 7 8 9 7 8 8 7 7 7 6 6 6 6 9 10 10 8 10 11 11 12 10 8 7 5 6 6 6 6 6 7 7 7 8 8 8 8 9 9 8 8 8 8
3 4 2 2 2 2 3 4 5 7 8 8 9 6 7 8 7 7 6 6 5 7 9 7 11 11 8 10 11 7 10 8 6 6 5 5 5 6 6 7 7 8 8 7 7 8 8 8 9 9 10 9 9 8
3 2 1 2 3 4 4 5 7 8 9 8 8 7 7 6 6 6 6 6 7 7 7 8 7 10 12 11 10 8 6 5 5 6 6 5 5 6 6 7 7 7 8 7 8 8 9 9 10 10 10 9 9 9
2 2 2 3 3 5 7 7 6 9 8 7 7 6 6 6 5 5 5 5 5 5 6 7 9 9 8 6 6 6 6 6 7 6 6 5 6 7 7 7 8 8 8 8 8 9 9 9 10 10 10 10 10 10
2 2 3 3 3 6 8 8 5 7 8 6 5 6 5 5 5 6 6 6 7 7 8 9 8 7 6 5 3 4 5 5 6 7 7 7 7 7 8 8 8 8 8 9 9 11 9 9 10 10 10 11 11 11
3 3 3 3 4 5 6 7 8 7 6 7 6 6 7 5 7 7 8 6 8 8 8 7 7 5 5 4 4 4 5 5 6 7 8 8 7 8 8 8 8 9 9 9 9 10 10 10 10 10 10 10 10 10
4 3 4 3 6 6 7 5 6 5 7 7 8 6 7 8 8 8 7 9 9 7 6 6 6 5 6 6 5 5 5 5 5 7 8 9 9 9 9 9 9 9 9 9 9 10 10 10 10 10 10 10 10 10
3 4 5 5 8 8 8 4 7 7 9 8 6 8 9 8 7 7 9 9 7 5 5 5 5 5 5 5 5 6 6 6 7 7 8 8 8 9 9 9 8 9 9 9 8 9 9 12 10 10 10 10 10 10
4 6 8 8 8 9 6 8 7 8 8 9 9 10 8 9 8 10 10 9 6 6 6 6 6 7 6 5 6 7 6 6 7 7 8 8 9 9 9 9 9 9 8 8 8 9 9 9 11 10 11 12 12 12
9 9 8 10 8 9 10 10 10 10 11 9 9 9 9 8 11 10 10 8 7 7 6 6 6 6 7 7 6 7 6 7 8 9 8 8 8 9 9 9 9 9 8 9 9 9 10 10 11 11 12 12 13 12
11 9 10 9 10 10 10 11 11 11 10 10 9 8 9 10 11 11 9 8 7 7 7 7 7 8 8 7 8 8 8 7 7 9 8 8 8 8 10 10 10 10 8 9 10 11 11 11 12 12 12 12 13 12
12 10 8 6 7 8 9 8 8 9 10 10 9 9 10 12 12 9 6 5 6 6 5 5 6 7 8 8 8 7 7 6 7 8 8 8 8 8 8 9 10 10 9 10 11 11 12 12 12 12 12 12 12 12
8 8 10 8 8 7 9 8 9 9 8 7 8 10 11 10 10 9 7 6 6 6 6 6 6 7 8 8 8 8 8 8 8 8 8 8 8 8 8 9 10 13 11 12 11 11 11 12 12 12 11 11 11 10
9 7 7 10 9 8 8 8 8 6 5 7 9 10 10 9 9 8 7 7 6 7 8 8 8 8 8 8 7 7 8 8 9 10 10 10 10 9 8 9 9 9 10 11 16 13 13 12 11 10 10 10 9 9
8 6 8 9 10 10 7 6 7 6 6 7 8 9 9 8 8 7 6 7 7 7 7 8 8 8 9 8 9 8 7 7 6 7 9 9 9 9 8 9 9 10 10 10 11 10 12 10 10 9 10 10 10 10
7 7 8 9 10 9 8 6 7 7 8 9 8 9 9 9 8 7 8 7 7 8 8 8 8 7 8 8 8 9 10 7 7 7 7 7 8 8 9 9 10 10 10 10 10 10 10 10 10 11 11 11 11 11
8 9 10 11 11 9 8 9 10 11 10 10 10 10 9 9 11 9 8 7 8 8 10 8 8 8 7 7 7 7 10 8 8 8 8 8 8 9 9 10 10 10 10 10 10 10 11 11 11 12 12 13 12 12
10 10 9 10 11 11 10 9 10 11 10 11 11 10 10 10 12 9 8 7 7 8 8 8 8 8 8 8 8 8 9 8 11 12 12 12 11 11 10 10 10 9 10 10 10 11 12 12 13 13 14 14 14 13